Time,TemperatureF,DewpointF,PressureIn,WindDirection,WindDirectionDegrees,WindSpeedMPH,WindSpeedGustMPH,Humidity,HourlyPrecipIn,Conditions,Clouds,dailyrainin,SolarRadiationWatts/m^2,SoftwareType,DateUTC
2013-03-19 00:02:00,31.0,6.0,-100.00,NNW,347,7.0,21.0,34,0.00,,,0.00,0.000000,,2013-03-19 06:02:00,
2013-03-19 00:12:00,31.0,6.0,-100.00,NNW,347,7.0,21.0,34,0.00,,,0.00,0.000000,,2013-03-19 06:12:00,
2013-03-19 00:22:00,31.0,6.0,-100.00,NNW,347,7.0,21.0,34,0.00,,,0.00,0.000000,,2013-03-19 06:22:00,
2013-03-19 00:32:00,31.0,6.0,-100.00,NNW,347,7.0,21.0,34,0.00,,,0.00,0.000000,,2013-03-19 06:32:00,
2013-03-19 01:02:00,31.0,5.0,-100.00,East,100,5.0,13.0,33,0.00,,,0.00,0.000000,,2013-03-19 07:02:00,
2013-03-19 01:12:00,31.0,5.0,-100.00,East,100,5.0,13.0,33,0.00,,,0.00,0.000000,,2013-03-19 07:12:00,
2013-03-19 01:21:00,31.0,5.0,-100.00,East,100,5.0,13.0,33,0.00,,,0.00,0.000000,,2013-03-19 07:21:00,
2013-03-19 01:32:00,31.0,5.0,-100.00,East,100,5.0,13.0,33,0.00,,,0.00,0.000000,,2013-03-19 07:32:00,
2013-03-19 02:03:00,32.0,6.0,-100.00,NW,326,5.0,15.0,32,0.00,,,0.00,0.000000,,2013-03-19 08:03:00,
2013-03-19 02:12:00,32.0,6.0,-100.00,NW,326,5.0,15.0,32,0.00,,,0.00,0.000000,,2013-03-19 08:12:00,
2013-03-19 02:22:00,32.0,6.0,-100.00,NW,326,5.0,15.0,32,0.00,,,0.00,0.000000,,2013-03-19 08:22:00,
2013-03-19 02:32:00,32.0,6.0,-100.00,NW,326,5.0,15.0,32,0.00,,,0.00,0.000000,,2013-03-19 08:32:00,
2013-03-19 03:02:00,30.0,6.0,-100.00,WNW,295,4.0,15.0,35,0.00,,,0.00,0.000000,,2013-03-19 09:02:00,
2013-03-19 03:12:00,30.0,6.0,-100.00,WNW,295,4.0,15.0,35,0.00,,,0.00,0.000000,,2013-03-19 09:12:00,
2013-03-19 03:22:00,30.0,6.0,-100.00,WNW,295,4.0,15.0,35,0.00,,,0.00,0.000000,,2013-03-19 09:22:00,
2013-03-19 03:32:00,30.0,6.0,-100.00,WNW,295,4.0,15.0,35,0.00,,,0.00,0.000000,,2013-03-19 09:32:00,
2013-03-19 04:03:00,31.0,7.0,-100.00,SSW,200,10.0,29.0,35,0.00,,,0.00,0.000000,,2013-03-19 10:03:00,
2013-03-19 04:13:00,31.0,7.0,-100.00,SSW,200,10.0,29.0,35,0.00,,,0.00,0.000000,,2013-03-19 10:13:00,
2013-03-19 04:23:00,31.0,7.0,-100.00,SSW,200,10.0,29.0,35,0.00,,,0.00,0.000000,,2013-03-19 10:23:00,
2013-03-19 04:32:00,31.0,7.0,-100.00,SSW,200,10.0,29.0,35,0.00,,,0.00,0.000000,,2013-03-19 10:32:00,
2013-03-19 05:02:00,32.0,6.0,-100.00,East,80,9.0,24.0,32,0.00,,,0.00,0.000000,,2013-03-19 11:02:00,
2013-03-19 05:12:00,32.0,6.0,-100.00,East,80,9.0,24.0,32,0.00,,,0.00,0.000000,,2013-03-19 11:12:00,
2013-03-19 05:22:00,32.0,6.0,-100.00,East,80,9.0,24.0,32,0.00,,,0.00,0.000000,,2013-03-19 11:22:00,
2013-03-19 05:32:00,32.0,6.0,-100.00,East,80,9.0,24.0,32,0.00,,,0.00,0.000000,,2013-03-19 11:32:00,
2013-03-19 06:02:00,30.0,7.0,-100.00,East,82,6.0,24.0,37,0.00,,,0.00,0.000000,,2013-03-19 12:02:00,
2013-03-19 06:12:00,30.0,7.0,-100.00,East,82,6.0,24.0,37,0.00,,,0.00,0.000000,,2013-03-19 12:12:00,
2013-03-19 06:22:00,30.0,7.0,-100.00,East,82,6.0,24.0,37,0.00,,,0.00,0.000000,,2013-03-19 12:22:00,
2013-03-19 06:33:00,30.0,7.0,-100.00,East,82,6.0,24.0,37,0.00,,,0.00,0.000000,,2013-03-19 12:33:00,
2013-03-19 07:02:00,26.0,7.0,-100.00,North,349,4.0,10.0,44,0.00,,,0.00,0.000000,,2013-03-19 13:02:00,
2013-03-19 07:12:00,26.0,7.0,-100.00,North,349,4.0,10.0,44,0.00,,,0.00,0.000000,,2013-03-19 13:12:00,
2013-03-19 07:22:00,26.0,7.0,-100.00,North,349,4.0,10.0,44,0.00,,,0.00,0.000000,,2013-03-19 13:22:00,
2013-03-19 07:32:00,26.0,7.0,-100.00,North,349,4.0,10.0,44,0.00,,,0.00,0.000000,,2013-03-19 13:32:00,
2013-03-19 08:02:00,31.0,8.0,-100.00,West,264,13.0,26.0,38,0.00,,,0.00,8.000000,,2013-03-19 14:02:00,
2013-03-19 08:12:00,31.0,8.0,-100.00,West,264,13.0,26.0,38,0.00,,,0.00,8.000000,,2013-03-19 14:12:00,
2013-03-19 08:22:00,31.0,8.0,-100.00,West,264,13.0,26.0,38,0.00,,,0.00,8.000000,,2013-03-19 14:22:00,
2013-03-19 08:32:00,31.0,8.0,-100.00,West,264,13.0,26.0,38,0.00,,,0.00,8.000000,,2013-03-19 14:32:00,
2013-03-19 09:02:00,34.0,10.0,-100.00,East,89,5.0,20.0,36,0.00,,,0.00,102.000000,,2013-03-19 15:02:00,
2013-03-19 09:12:00,34.0,10.0,-100.00,East,89,5.0,20.0,36,0.00,,,0.00,102.000000,,2013-03-19 15:12:00,
2013-03-19 09:22:00,34.0,10.0,-100.00,East,89,5.0,20.0,36,0.00,,,0.00,102.000000,,2013-03-19 15:22:00,
2013-03-19 09:33:00,34.0,10.0,-100.00,East,89,5.0,20.0,36,0.00,,,0.00,102.000000,,2013-03-19 15:33:00,
2013-03-19 10:04:00,37.0,8.0,-100.00,South,178,3.0,9.0,30,0.00,,,0.00,268.000000,,2013-03-19 16:04:00,
2013-03-19 10:13:00,37.0,8.0,-100.00,South,178,3.0,9.0,30,0.00,,,0.00,268.000000,,2013-03-19 16:13:00,
2013-03-19 10:24:00,37.0,8.0,-100.00,South,178,3.0,9.0,30,0.00,,,0.00,268.000000,,2013-03-19 16:24:00,
2013-03-19 10:34:00,37.0,8.0,-100.00,South,178,3.0,9.0,30,0.00,,,0.00,268.000000,,2013-03-19 16:34:00,
2013-03-19 11:03:00,34.0,5.0,-100.00,NW,309,8.0,19.0,29,0.00,,,0.00,320.000000,,2013-03-19 17:03:00,
2013-03-19 11:13:00,34.0,5.0,-100.00,NW,309,8.0,19.0,29,0.00,,,0.00,320.000000,,2013-03-19 17:13:00,
2013-03-19 11:23:00,34.0,5.0,-100.00,NW,309,8.0,19.0,29,0.00,,,0.00,320.000000,,2013-03-19 17:23:00,
2013-03-19 11:34:00,34.0,5.0,-100.00,NW,309,8.0,19.0,29,0.00,,,0.00,320.000000,,2013-03-19 17:34:00,
2013-03-19 12:03:00,35.0,7.0,-100.00,WNW,290,10.0,15.0,30,0.00,,,0.00,261.000000,,2013-03-19 18:03:00,
2013-03-19 12:13:00,35.0,7.0,-100.00,WNW,290,10.0,15.0,30,0.00,,,0.00,261.000000,,2013-03-19 18:13:00,
2013-03-19 12:23:00,35.0,7.0,-100.00,WNW,290,10.0,15.0,30,0.00,,,0.00,261.000000,,2013-03-19 18:23:00,
2013-03-19 12:33:00,35.0,7.0,-100.00,WNW,290,10.0,15.0,30,0.00,,,0.00,261.000000,,2013-03-19 18:33:00,
2013-03-19 13:02:00,38.0,7.0,-100.00,WNW,292,11.0,18.0,27,0.00,,,0.00,489.000000,,2013-03-19 19:02:00,
2013-03-19 13:12:00,38.0,7.0,-100.00,WNW,292,11.0,18.0,27,0.00,,,0.00,489.000000,,2013-03-19 19:12:00,
2013-03-19 13:22:00,38.0,7.0,-100.00,WNW,292,11.0,18.0,27,0.00,,,0.00,489.000000,,2013-03-19 19:22:00,
2013-03-19 13:33:00,38.0,7.0,-100.00,WNW,292,11.0,18.0,27,0.00,,,0.00,489.000000,,2013-03-19 19:33:00,
2013-03-19 14:03:00,40.0,8.0,-100.00,WNW,291,11.0,20.0,26,0.00,,,0.00,614.000000,,2013-03-19 20:03:00,
2013-03-19 14:12:00,40.0,8.0,-100.00,WNW,291,11.0,20.0,26,0.00,,,0.00,614.000000,,2013-03-19 20:12:00,
2013-03-19 14:22:00,40.0,8.0,-100.00,WNW,291,11.0,20.0,26,0.00,,,0.00,614.000000,,2013-03-19 20:22:00,
2013-03-19 14:32:00,40.0,8.0,-100.00,WNW,291,11.0,20.0,26,0.00,,,0.00,614.000000,,2013-03-19 20:32:00,
2013-03-19 14:53:00,42.0,8.0,-100.00,WNW,285,10.0,20.0,24,0.00,,,0.00,732.000000,,2013-03-19 20:53:00,
2013-03-19 15:02:00,42.0,8.0,-100.00,WNW,285,10.0,20.0,24,0.00,,,0.00,732.000000,,2013-03-19 21:02:00,
2013-03-19 15:12:00,42.0,8.0,-100.00,WNW,285,10.0,20.0,24,0.00,,,0.00,732.000000,,2013-03-19 21:12:00,
2013-03-19 15:22:00,42.0,8.0,-100.00,WNW,285,10.0,20.0,24,0.00,,,0.00,732.000000,,2013-03-19 21:22:00,
2013-03-19 15:33:00,42.0,8.0,-100.00,WNW,285,10.0,20.0,24,0.00,,,0.00,732.000000,,2013-03-19 21:33:00,
2013-03-19 16:03:00,41.0,5.0,-100.00,West,260,15.0,22.0,22,0.00,,,0.00,498.000000,,2013-03-19 22:03:00,
2013-03-19 16:13:00,41.0,5.0,-100.00,West,260,15.0,22.0,22,0.00,,,0.00,498.000000,,2013-03-19 22:13:00,
2013-03-19 16:23:00,41.0,5.0,-100.00,West,260,15.0,22.0,22,0.00,,,0.00,498.000000,,2013-03-19 22:23:00,
2013-03-19 16:33:00,41.0,5.0,-100.00,West,260,15.0,22.0,22,0.00,,,0.00,498.000000,,2013-03-19 22:33:00,
2013-03-19 17:03:00,38.0,6.0,-100.00,WNW,286,14.0,21.0,26,0.00,,,0.00,367.000000,,2013-03-19 23:03:00,
2013-03-19 17:12:00,38.0,6.0,-100.00,WNW,286,14.0,21.0,26,0.00,,,0.00,367.000000,,2013-03-19 23:12:00,
2013-03-19 17:22:00,38.0,6.0,-100.00,WNW,286,14.0,21.0,26,0.00,,,0.00,367.000000,,2013-03-19 23:22:00,
2013-03-19 17:32:00,38.0,6.0,-100.00,WNW,286,14.0,21.0,26,0.00,,,0.00,367.000000,,2013-03-19 23:32:00,
2013-03-19 18:03:00,40.0,4.0,-100.00,West,278,15.0,24.0,22,0.00,,,0.00,484.000000,,2013-03-20 00:03:00,
2013-03-19 18:13:00,40.0,4.0,-100.00,West,278,15.0,24.0,22,0.00,,,0.00,484.000000,,2013-03-20 00:13:00,
2013-03-19 18:22:00,40.0,4.0,-100.00,West,278,15.0,24.0,22,0.00,,,0.00,484.000000,,2013-03-20 00:22:00,
2013-03-19 18:33:00,40.0,4.0,-100.00,West,278,15.0,24.0,22,0.00,,,0.00,484.000000,,2013-03-20 00:33:00,
2013-03-19 19:03:00,37.0,2.0,-100.00,West,278,14.0,23.0,22,0.00,,,0.00,268.000000,,2013-03-20 01:03:00,
2013-03-19 19:12:00,37.0,2.0,-100.00,West,278,14.0,23.0,22,0.00,,,0.00,268.000000,,2013-03-20 01:12:00,
2013-03-19 19:22:00,37.0,2.0,-100.00,West,278,14.0,23.0,22,0.00,,,0.00,268.000000,,2013-03-20 01:22:00,
2013-03-19 19:32:00,37.0,2.0,-100.00,West,278,14.0,23.0,22,0.00,,,0.00,268.000000,,2013-03-20 01:32:00,
2013-03-19 20:02:00,33.0,2.0,-100.00,North,359,6.0,21.0,26,0.00,,,0.00,24.000000,,2013-03-20 02:02:00,
2013-03-19 20:12:00,33.0,2.0,-100.00,North,359,6.0,21.0,26,0.00,,,0.00,24.000000,,2013-03-20 02:12:00,
2013-03-19 20:22:00,33.0,2.0,-100.00,North,359,6.0,21.0,26,0.00,,,0.00,24.000000,,2013-03-20 02:22:00,
2013-03-19 20:32:00,33.0,2.0,-100.00,North,359,6.0,21.0,26,0.00,,,0.00,24.000000,,2013-03-20 02:32:00,
2013-03-19 21:02:00,27.0,5.0,-100.00,North,359,6.0,8.0,38,0.00,,,0.00,0.000000,,2013-03-20 03:02:00,
2013-03-19 21:12:00,27.0,5.0,-100.00,North,359,6.0,8.0,38,0.00,,,0.00,0.000000,,2013-03-20 03:12:00,
2013-03-19 21:22:00,27.0,5.0,-100.00,North,359,6.0,8.0,38,0.00,,,0.00,0.000000,,2013-03-20 03:22:00,
2013-03-19 21:33:00,27.0,5.0,-100.00,North,359,6.0,8.0,38,0.00,,,0.00,0.000000,,2013-03-20 03:33:00,
2013-03-19 22:03:00,27.0,8.0,-100.00,North,354,5.0,9.0,44,0.00,,,0.00,0.000000,,2013-03-20 04:03:00,
2013-03-19 22:12:00,27.0,8.0,-100.00,North,354,5.0,9.0,44,0.00,,,0.00,0.000000,,2013-03-20 04:12:00,
2013-03-19 22:23:00,27.0,8.0,-100.00,North,354,5.0,9.0,44,0.00,,,0.00,0.000000,,2013-03-20 04:23:00,
2013-03-19 22:32:00,27.0,8.0,-100.00,North,354,5.0,9.0,44,0.00,,,0.00,0.000000,,2013-03-20 04:32:00,
2013-03-19 23:02:00,22.0,7.0,-100.00,NNW,348,8.0,10.0,52,0.00,,,0.00,0.000000,,2013-03-20 05:02:00,
2013-03-19 23:12:00,22.0,7.0,-100.00,NNW,348,8.0,10.0,52,0.00,,,0.00,0.000000,,2013-03-20 05:12:00,
2013-03-19 23:23:00,22.0,7.0,-100.00,NNW,348,8.0,10.0,52,0.00,,,0.00,0.000000,,2013-03-20 05:23:00,
2013-03-19 23:32:00,22.0,7.0,-100.00,NNW,348,8.0,10.0,52,0.00,,,0.00,0.000000,,2013-03-20 05:32:00,